GLONASS-K 2

Last updated on Nov. 19, 2019, 4:25 a.m. UTC

1 40315U 14075A   19322.50845068  .00000015  00000-0  00000+0 0  9998
2 40315  63.9778 274.2603 0017006 212.0137 359.0387  2.13098573 38654
UTC
Height (km)
Latitude
Longitude
Inclination
Orbital Period
UTC large
Height (km)
Speed (km/s)
/
Latitude / Longitude
Inclination (degrees)
Orbital Period (minutes)
Azimuth
Elevation
Range (km)
Doppler Factor
iOS Compass Heading
iOS Angle

Next 30 passes for location: Hong Kong

Rise time Rise Azimuth (degrees) Set time Set Azimuth (degrees) Duration Max altitude (degrees)

No matching passes for this satellites